Wind_Speed
27 27 27 27 27 28 28 29 30 30 31 31 32 33 34 34 35 35 35 35 36 37 38 39 40 41 41 42 43 43 44 44 45 46 46 47 47 48 48 48 49 49 49
28 28 28 29 29 29 30 31 31 32 32 33 34 34 35 36 36 37 37 37 38 38 39 39 40 41 42 42 43 44 45 45 46 46 47 47 48 48 49 49 49 50 50
29 29 30 30 31 31 32 32 33 33 34 34 35 36 36 37 38 38 38 39 39 40 40 40 41 41 42 43 43 44 45 45 46 46 47 47 48 48 49 49 50 50 51
30 31 31 32 32 33 33 34 35 35 36 36 37 38 38 38 39 39 40 40 41 41 41 42 42 42 43 43 44 44 45 46 46 46 47 47 48 48 49 49 50 50 50
32 33 33 33 34 34 35 36 37 37 38 38 39 39 40 40 40 41 41 42 42 42 43 43 44 44 44 45 46 46 47 48 48 49 49 50 50 50 51 51 51 51 52
33 34 34 34 35 36 37 37 38 39 39 39 40 40 41 42 42 43 43 44 44 45 45 45 46 47 47 48 49 49 50 51 51 52 53 53 53 54 54 54 54 54 55
34 35 35 36 36 37 38 39 40 40 40 41 41 41 42 43 43 44 45 46 46 47 47 48 49 49 50 51 51 52 53 54 54 55 56 56 57 57 57 57 58 58 58
35 35 36 37 38 39 40 41 41 41 42 42 42 43 43 44 45 46 47 47 48 49 50 51 52 52 53 53 54 55 56 56 57 58 59 59 60 60 60 60 61 61 61
36 37 37 38 40 41 42 42 43 43 43 44 45 45 45 44 45 46 47 49 50 51 52 53 54 55 56 57 57 58 59 60 60 60 61 61 62 62 63 63 63 64 64
37 38 39 40 41 42 43 44 44 45 45 46 47 47 47 47 46 45 46 48 50 51 53 54 55 57 58 59 60 61 61 62 62 63 64 64 65 66 66 66 67 67 67
38 39 40 41 42 43 44 46 46 47 47 47 48 48 48 48 49 49 47 48 49 51 52 54 56 57 59 60 61 62 62 63 64 65 66 66 67 67 67 68 68 69 69
39 40 41 42 43 45 46 47 47 48 48 48 49 49 49 50 50 51 50 50 50 51 52 53 55 57 58 59 60 62 63 64 65 66 67 67 67 68 68 69 69 70 70
40 41 42 44 45 46 47 48 48 49 49 49 50 50 51 51 52 52 52 52 52 52 53 54 55 57 58 60 62 63 64 65 66 67 68 69 69 70 70 71 71 72 72
42 43 44 45 47 47 48 49 49 49 49 50 50 51 51 52 53 53 54 55 54 54 55 56 58 59 61 62 64 65 66 67 68 69 70 70 71 72 73 74 74 74 75
43 44 46 47 48 48 49 49 49 50 50 51 51 52 53 53 54 55 56 57 58 58 58 59 62 63 64 65 67 68 69 70 71 72 73 74 75 76 76 77 77 78 78
45 46 47 48 49 49 49 49 50 50 51 51 52 53 53 54 55 56 58 60 61 63 63 64 66 68 70 71 72 73 75 75 76 77 78 79 80 80 80 81 81 81 81
46 47 47 48 49 49 49 50 50 51 52 52 53 54 55 56 57 59 61 63 65 67 68 68 71 73 75 77 78 79 81 82 82 82 83 83 83 83 83 83 83 82 82
46 47 47 48 49 49 50 50 51 52 53 53 55 55 56 58 60 62 65 67 69 71 73 74 74 77 79 81 82 83 84 85 85 85 85 84 84 83 82 82 81 80 78
46 47 48 49 49 50 51 52 52 53 54 55 56 58 59 62 64 66 69 71 73 75 77 78 78 79 81 82 83 83 84 84 83 83 82 82 81 80 78 76 74 72 71
47 48 48 49 50 51 51 52 53 54 55 57 59 61 63 66 68 71 73 75 77 78 80 81 81 81 81 82 82 82 81 79 78 77 76 75 74 72 69 67 65 63 62
47 48 49 50 50 51 52 53 54 56 58 59 62 64 67 69 72 74 76 78 79 80 81 83 83 82 80 79 78 77 75 72 70 69 67 65 63 61 58 56 55 54 53
48 49 49 50 51 52 54 55 57 58 60 63 65 68 70 73 75 77 78 79 81 82 83 83 81 79 77 75 73 71 69 66 62 58 57 53 52 50 48 47 46 45 44
48 48 49 50 52 54 55 57 59 61 64 67 69 71 74 75 77 79 79 79 80 81 81 80 77 74 71 68 67 65 62 59 53 49 47 44 43 41 40 39 38 36 35
48 49 50 52 54 55 57 60 62 65 68 70 72 74 76 77 78 79 79 79 78 77 75 73 71 68 66 64 62 59 54 49 44 41 40 37 35 35 34 32 31 30 29
48 50 51 53 55 58 60 63 66 69 70 72 74 76 77 78 79 80 79 78 75 72 69 67 65 63 61 58 55 51 46 42 37 35 34 32 30 29 27 27 27 26 25
49 51 53 55 58 61 64 67 69 72 73 75 76 77 78 78 78 78 77 74 70 67 65 62 61 58 54 51 47 43 40 37 34 31 30 28 26 25 23 24 24 24 23
Wind_Direction
287 287 288 288 289 291 291 292 293 293 292 292 291 290 289 288 286 285 284 283 282 280 279 277 276 274 273 272 271 270 270 269 268 268 267 267 267 266 266 266 265 265 265
286 287 288 289 290 291 292 293 293 293 293 293 292 291 290 289 288 286 285 284 282 281 280 279 277 275 274 273 272 271 270 269 269 268 268 267 267 267 267 266 266 266 265
287 288 288 289 290 291 292 293 294 294 294 294 294 293 291 290 289 288 286 285 284 282 281 279 278 276 275 273 272 271 271 270 269 269 268 268 267 267 267 267 267 266 266
288 288 289 290 291 292 293 294 294 294 295 295 294 294 292 291 290 289 287 286 285 284 282 281 279 278 276 274 273 272 272 271 270 270 269 268 268 268 267 267 267 267 266
288 289 289 290 291 292 293 294 294 294 295 295 295 294 293 292 291 290 289 287 286 285 283 282 280 279 278 276 275 274 273 272 271 271 270 270 269 269 268 268 267 267 267
288 289 289 290 291 292 293 294 294 295 295 295 295 294 294 293 292 291 289 288 287 286 285 283 281 280 279 278 277 276 275 274 273 273 272 271 270 270 269 269 268 268 267
288 289 289 290 292 293 294 294 295 296 296 295 295 295 294 293 292 291 290 288 287 286 285 284 282 281 280 279 278 277 276 275 275 274 273 272 271 271 270 269 269 268 267
289 289 290 291 293 294 295 296 296 296 296 296 295 295 294 293 293 292 290 289 288 287 286 285 284 283 281 281 280 279 278 277 276 275 274 274 273 272 271 270 270 269 268
289 290 291 293 294 295 296 296 297 296 296 296 296 295 294 292 291 291 290 289 288 288 287 286 285 285 284 283 282 281 280 279 278 277 276 276 275 274 273 272 271 270 269
290 291 292 294 295 296 296 297 297 297 297 297 297 296 295 294 292 289 288 287 287 286 286 286 285 284 284 283 282 282 281 280 280 279 278 277 276 275 274 274 273 272 271
290 292 293 294 295 296 297 297 297 297 297 297 296 296 295 295 293 292 289 287 287 286 285 285 284 284 283 283 283 282 282 281 280 279 279 278 277 276 276 275 274 273 272
290 292 293 295 296 297 297 298 298 298 298 297 297 297 296 295 294 293 291 289 288 287 286 286 285 285 284 284 283 283 282 282 281 280 279 278 278 277 276 275 274 273 272
291 292 294 295 296 297 298 298 298 298 298 298 298 297 297 296 295 294 293 292 291 290 289 288 287 286 285 285 284 284 283 282 281 281 280 279 278 277 276 275 275 274 273
291 293 294 296 297 297 298 298 298 298 298 298 298 298 297 297 296 296 295 294 293 292 291 291 290 288 287 286 286 285 284 283 282 281 280 279 278 277 277 276 275 274 273
292 294 295 296 297 298 298 298 298 299 299 299 299 299 298 298 297 297 296 296 295 294 293 293 292 291 290 289 288 287 286 285 284 282 281 280 279 278 278 277 276 275 274
293 295 296 297 297 298 299 299 299 300 300 300 300 300 300 299 299 298 298 298 297 297 296 295 294 293 292 291 289 288 287 286 285 284 283 282 281 280 279 278 276 275 274
294 295 296 297 298 299 299 300 300 300 301 301 301 301 301 300 300 300 299 299 299 298 297 297 296 295 294 293 291 290 289 288 287 286 285 284 283 282 280 279 277 276 274
295 296 297 298 299 299 300 300 300 301 301 302 302 302 301 301 301 301 301 301 300 299 299 298 297 296 295 294 293 292 291 290 289 288 287 286 285 283 281 280 278 276 274
296 297 298 298 299 300 300 301 301 302 302 302 302 302 302 302 302 302 302 301 301 300 299 299 298 297 296 295 294 293 292 291 290 289 288 287 285 284 282 280 278 276 274
297 298 298 299 299 300 301 301 302 302 303 303 303 303 303 303 303 303 303 302 301 301 300 299 298 297 296 296 295 294 293 292 291 290 289 287 286 284 282 279 277 275 273
297 298 298 299 300 301 301 302 302 303 303 304 304 304 304 305 304 304 303 303 302 301 300 300 299 299 298 297 296 295 295 294 293 292 289 288 286 284 282 279 276 274 272
297 298 299 300 301 301 301 302 303 304 304 305 305 305 306 305 305 304 304 303 302 302 302 301 301 301 300 299 298 297 297 296 295 292 290 288 286 284 281 278 276 273 270
298 298 299 300 301 302 302 303 304 305 306 307 307 307 307 306 305 305 304 304 303 303 303 303 303 302 301 300 300 299 298 297 296 292 289 288 285 283 280 278 276 273 270
298 299 300 301 302 303 303 304 305 306 307 308 308 308 308 307 306 305 305 305 305 304 303 303 303 303 302 302 301 300 299 298 295 292 289 288 284 282 279 277 274 272 269
299 300 301 302 303 304 304 305 306 307 308 308 308 308 308 307 307 306 306 306 305 305 304 303 303 304 303 302 301 300 299 298 295 292 290 288 283 280 277 274 273 270 268
300 301 302 303 304 305 306 306 307 308 308 309 309 309 308 308 307 307 306 306 306 305 304 304 304 303 302 301 300 299 298 297 295 291 287 285 282 278 275 274 272 270 269
Height
5833 5831 5829 5827 5825 5823 5820 5818 5815 5813 5810 5808 5805 5803 5800 5798 5796 5794 5792 5790 5788 5786 5784 5782 5781 5779 5778 5776 5775 5774 5773 5773 5772 5771 5771 5770 5770 5770 5770 5770 5770 5770 5770
5827 5825 5823 5821 5819 5817 5814 5812 5809 5806 5803 5801 5798 5795 5793 5790 5788 5786 5783 5781 5779 5777 5775 5773 5771 5769 5768 5767 5765 5764 5763 5762 5761 5761 5760 5759 5759 5759 5758 5758 5758 5758 5759
5821 5819 5817 5815 5812 5810 5807 5804 5802 5799 5796 5793 5790 5787 5784 5782 5779 5777 5774 5772 5770 5768 5766 5763 5762 5760 5758 5756 5755 5754 5753 5752 5751 5750 5749 5748 5748 5747 5747 5747 5746 5746 5747
5815 5812 5810 5808 5805 5803 5800 5797 5794 5791 5788 5785 5782 5779 5776 5773 5770 5767 5765 5762 5760 5758 5755 5753 5751 5749 5748 5746 5745 5743 5742 5741 5740 5739 5738 5737 5736 5736 5735 5735 5735 5734 5734
5808 5806 5803 5800 5798 5795 5792 5790 5786 5783 5780 5777 5773 5770 5767 5764 5760 5757 5755 5752 5749 5747 5745 5743 5741 5739 5737 5735 5733 5732 5730 5729 5728 5727 5726 5725 5724 5724 5723 5723 5722 5722 5722
5801 5798 5796 5793 5790 5788 5785 5782 5778 5775 5772 5768 5765 5761 5758 5754 5751 5747 5744 5742 5739 5736 5733 5731 5729 5727 5725 5723 5721 5720 5718 5717 5715 5714 5713 5712 5711 5710 5710 5709 5709 5709 5708
5793 5791 5788 5786 5783 5780 5776 5773 5770 5767 5763 5759 5756 5752 5748 5744 5741 5737 5734 5731 5728 5725 5722 5719 5717 5715 5713 5711 5709 5707 5705 5703 5702 5700 5699 5698 5697 5696 5695 5694 5694 5694 5694
5786 5783 5780 5778 5774 5771 5768 5764 5761 5757 5754 5750 5746 5743 5739 5736 5731 5727 5723 5719 5716 5713 5710 5707 5704 5701 5699 5697 5695 5693 5691 5689 5687 5685 5684 5682 5681 5680 5679 5678 5678 5678 5678
5778 5775 5772 5769 5766 5763 5759 5755 5752 5748 5744 5740 5736 5733 5729 5726 5722 5718 5712 5708 5704 5700 5697 5694 5690 5687 5685 5682 5680 5678 5675 5673 5671 5669 5667 5666 5664 5663 5662 5661 5660 5660 5660
5770 5767 5764 5760 5757 5753 5750 5746 5742 5738 5734 5730 5725 5721 5717 5713 5710 5708 5704 5698 5693 5689 5685 5681 5677 5674 5670 5667 5665 5662 5659 5657 5654 5652 5650 5648 5647 5645 5644 5643 5642 5641 5641
5761 5758 5755 5751 5747 5744 5740 5736 5732 5727 5723 5718 5714 5710 5706 5701 5697 5694 5692 5688 5683 5678 5673 5669 5664 5660 5656 5653 5649 5646 5643 5640 5637 5635 5632 5630 5628 5626 5625 5623 5622 5621 5621
5752 5749 5745 5742 5738 5734 5730 5725 5721 5716 5712 5707 5702 5698 5694 5689 5685 5681 5678 5674 5670 5666 5661 5656 5651 5646 5642 5638 5634 5631 5627 5623 5620 5617 5614 5612 5609 5607 5605 5604 5602 5601 5600
5743 5740 5736 5732 5728 5723 5719 5714 5710 5705 5700 5696 5691 5686 5681 5676 5672 5667 5663 5660 5657 5653 5648 5642 5637 5632 5627 5622 5618 5614 5611 5607 5603 5599 5596 5593 5590 5588 5585 5583 5582 5580 5579
5733 5730 5726 5721 5717 5712 5708 5703 5698 5693 5688 5684 5679 5674 5669 5663 5658 5654 5649 5645 5641 5638 5633 5628 5622 5616 5611 5606 5601 5596 5593 5588 5584 5580 5576 5573 5570 5567 5564 5562 5560 5558 5556
5723 5719 5715 5711 5706 5701 5696 5692 5687 5682 5677 5671 5666 5661 5656 5650 5645 5640 5634 5629 5625 5621 5619 5612 5605 5599 5593 5588 5582 5577 5572 5568 5563 5559 5554 5550 5547 5544 5541 5538 5536 5534 5532
5713 5709 5704 5700 5695 5690 5685 5680 5675 5670 5664 5659 5654 5648 5642 5637 5631 5626 5620 5614 5608 5603 5600 5595 5587 5580 5573 5568 5562 5556 5550 5545 5540 5535 5529 5525 5521 5518 5514 5512 5509 5507 5506
5703 5698 5693 5689 5684 5679 5674 5668 5663 5658 5652 5647 5641 5635 5629 5623 5617 5611 5605 5598 5591 5584 5580 5577 5568 5560 5552 5544 5538 5531 5525 5519 5514 5508 5502 5497 5492 5489 5485 5483 5480 5479 5477
5692 5687 5682 5678 5673 5667 5662 5657 5651 5646 5640 5634 5628 5622 5615 5609 5602 5595 5588 5581 5573 5565 5558 5554 5548 5539 5530 5521 5513 5506 5498 5491 5485 5480 5473 5467 5463 5459 5455 5453 5451 5449 5449
5681 5676 5671 5666 5661 5656 5650 5645 5639 5633 5627 5621 5614 5608 5601 5594 5586 5578 5571 5563 5554 5545 5536 5529 5525 5516 5507 5497 5488 5481 5473 5465 5458 5451 5445 5439 5435 5430 5427 5425 5423 5422 5422
5670 5665 5660 5655 5649 5644 5638 5632 5626 5620 5614 5607 5600 5593 5585 5577 5569 5561 5552 5543 5533 5524 5515 5506 5499 5492 5483 5473 5462 5455 5448 5441 5433 5425 5419 5413 5409 5405 5402 5399 5398 5398 5398
5659 5654 5648 5643 5637 5632 5626 5620 5614 5607 5601 5594 5586 5578 5570 5561 5551 5542 5532 5523 5512 5502 5492 5482 5474 5466 5458 5448 5439 5430 5423 5417 5411 5402 5396 5391 5386 5383 5380 5378 5378 5378 5378
5647 5642 5637 5631 5625 5619 5613 5606 5600 5593 5586 5579 5570 5562 5553 5543 5533 5523 5512 5502 5490 5479 5468 5458 5450 5441 5433 5424 5415 5407 5400 5394 5391 5384 5376 5374 5368 5365 5363 5362 5362 5361 5362
5636 5630 5625 5619 5613 5606 5600 5593 5585 5578 5571 5562 5553 5544 5534 5524 5512 5502 5492 5482 5471 5458 5446 5435 5427 5419 5411 5403 5394 5388 5381 5375 5371 5366 5361 5359 5355 5352 5350 5349 5348 5349 5349
5624 5618 5613 5606 5600 5593 5586 5578 5571 5563 5555 5546 5535 5525 5514 5504 5491 5480 5471 5461 5451 5440 5428 5417 5408 5400 5392 5384 5376 5370 5364 5360 5357 5353 5348 5346 5344 5341 5340 5339 5338 5339 5339
5612 5606 5600 5594 5587 5580 5571 5563 5554 5546 5538 5528 5518 5507 5495 5484 5473 5460 5449 5440 5431 5421 5410 5401 5392 5384 5376 5368 5361 5355 5351 5347 5345 5342 5338 5335 5334 5332 5332 5331 5330 5331 5331
5600 5594 5587 5580 5573 5565 5556 5547 5537 5529 5521 5512 5501 5489 5477 5464 5453 5440 5429 5419 5411 5403 5394 5386 5378 5369 5362 5355 5349 5343 5339 5336 5334 5332 5330 5327 5326 5325 5325 5324 5323 5324 5325